Printer-friendly version

IAU Minor Planet Center

Minor Planet Center

MPEC 2004-K09 : 2004 KA

The following Minor Planet Electronic Circular may be linked-to from your own Web pages, but must not otherwise be redistributed electronically.


Read MPEC 2004-K08 Read MPEC 2004-K10


M.P.E.C. 2004-K09                                Issued 2004 May 17, 15:39 UT

     The Minor Planet Electronic Circulars contain information on unusual
         minor planets and routine data on comets.  They are published
   on behalf of Commission 20 of the International Astronomical Union by the
          Minor Planet Center, Smithsonian Astrophysical Observatory,
                          Cambridge, MA 02138, U.S.A.

         Supported in part by the Steven and Michele Kirsch Foundation
             Prepared using the Tamkin Foundation Computer Network

                              MPC@CFA.HARVARD.EDU
          URL http://cfa-www.harvard.edu/iau/mpc.html  ISSN 1523-6714

                                    2004 KA

Observations:
     K04K00A  C2004 05 14.25055 14 34 29.68 -01 16 35.1          18.6   EK009704
     K04K00A  C2004 05 14.26004 14 34 29.53 -01 16 08.2          18.7   EK009704
     K04K00A  C2004 05 14.26954 14 34 29.24 -01 15 40.9          19.3   EK009704
     K04K00A  C2004 05 14.28847 14 34 28.98 -01 14 46.2          19.2   EK009704
     K04K00A* C2004 05 16.25778 14 34 14.33 +00 21 44.4          18.7   EK009704
     K04K00A  C2004 05 16.26736 14 34 14.15 +00 22 13.9          19.4   EK009704
     K04K00A  C2004 05 16.27709 14 34 13.97 +00 22 42.1          19.4   EK009704
     K04K00A  C2004 05 16.28681 14 34 13.78 +00 23 12.3          19.4   EK009704
     K04K00A  C2004 05 16.29641 14 34 13.61 +00 23 41.1          19.2   EK009704
     K04K00A  C2004 05 17.25311 14 34 09.01 +01 12 19.0          19.0   EK009704
     K04K00A  C2004 05 17.26260 14 34 08.78 +01 12 47.8          18.6   EK009704
     K04K00A  C2004 05 17.27201 14 34 08.73 +01 13 17.1          18.9   EK009704
     K04K00A  C2004 05 17.28229 14 34 08.50 +01 13 48.7          19.1   EK009704
     K04K00A  C2004 05 17.29163 14 34 08.33 +01 14 17.6          18.8   EK009704

Observer details:
704 Lincoln Laboratory ETS, New Mexico.  Observers M. Blythe, F. Shelly,
    M. Bezpalko, R. Huber, L. Manguso, D. Torres, R. Kracke, M. McCleary,
    H. Stange, A. Milner.  Measurers J. Stuart, R. Sayer, J. Evans, J. Kommers.
    1.0-m f/2.15 reflector + CCD.

Orbital elements:
2004 KA
Epoch 2004 May 15.0 TT = JDT 2453140.5                  MPC
M 341.42189              (2000.0)            P               Q
n   0.31232834     Peri.   79.06249     +0.35907324     +0.92988575
a   2.1514361      Node   212.34261     -0.90397404     +0.32522469
e   0.5196833      Incl.    8.58586     -0.23215802     +0.17187608
P   3.16           H   19.8           G   0.15
From 14 observations 2004 May 14-17.

Ephemeris:
2004 KA                  a,e,i = 2.15, 0.52, 9                   q = 1.0334
Date    TT    R. A. (2000) Decl.     Delta      r     Elong.  Phase     V
2004 05 15    14 34.39   -00 40.2    0.253    1.248   157.5    18.1    18.2
2004 05 25    14 34.68   +08 25.4    0.213    1.189   142.7    31.1    18.1
2004 06 04    14 40.50   +19 16.0    0.184    1.137   127.8    44.9    18.1
2004 06 14    14 55.65   +31 27.7    0.165    1.093   113.9    58.2    18.2
2004 06 24    15 26.35   +44 17.4    0.154    1.060   102.4    69.5    18.3
2004 07 04    16 25.05   +56 22.2    0.149    1.040    94.8    77.0    18.4
2004 07 14    18 10.40   +64 41.1    0.152    1.033    92.1    79.4    18.6
2004 07 24    20 25.57   +65 27.2    0.161    1.041    94.7    76.5    18.6
2004 08 03    22 03.09   +59 47.1    0.174    1.063   101.4    69.3    18.6
2004 08 13    22 54.74   +51 38.8    0.191    1.097   111.3    59.4    18.5
2004 08 23    23 20.48   +42 50.3    0.213    1.142   123.3    47.7    18.5
2004 09 02    23 32.90   +34 01.3    0.241    1.195   136.6    35.5    18.5
2004 09 12    23 38.51   +25 42.3    0.278    1.255   149.9    23.7    18.6
2004 09 22    23 41.33   +18 24.2    0.330    1.319   160.9    14.4    18.8
2004 10 02    23 43.93   +12 31.8    0.396    1.387   164.9    10.9    19.2
2004 10 12    23 47.52   +08 09.9    0.480    1.457   159.6    13.8    19.8
2004 10 22    23 52.73   +05 10.2    0.579    1.528   151.0    18.4    20.5
2004 11 01    23 59.68   +03 18.3    0.695    1.599   142.3    22.3    21.1
2004 11 11    00 08.19   +02 18.7    0.824    1.670   133.9    25.3    21.7

Timothy B. Spahr             (C) Copyright 2004 MPC           M.P.E.C. 2004-K09

Read MPEC 2004-K08 Read MPEC 2004-K10


Our Web policy. Index to the CBAT/MPC/ICQ pages.


Valid HTML 4.01!